Location: Holcomb Observatory
(44.4922°N, 73.1654°W)
Time: 06:53:41
(UTC-05:00)

Daily predictions for brighter satellites

Satellite Brightness Start Highest point End
(mag) Time Altitude Azimuth Time Altitude Azimuth Time Altitude Azimuth
FALCON 9 R/B 4.2 17:49:00 10° WSW 17:54:34 46° SSE 18:13:24 10° ESE
Cosmos 1452 Rocket 3.5 17:54:02 10° NNW 17:59:21 85° ENE 18:04:36 10° SSE
Cosmos 1633 3.0 17:56:36 10° SSE 17:59:55 39° E 18:03:18 10° NNE
COSMO-SKYMED 1 2.5 17:55:50 10° NNE 18:00:12 73° ESE 18:04:31 10° S
FENGYUN 3A 3.7 17:55:55 10° SSE 18:01:18 81° ENE 18:06:46 10° NNW
Okean 3 3.4 17:57:48 10° N 18:01:57 61° E 18:06:05 10° SSE
Gbstr 26 Del rocket 4.3 17:59:20 10° S 18:01:59 18° SE 18:04:40 10° E
Cosmos 1048 Rocket 4.4 17:58:52 10° S 18:03:49 41° ESE 18:08:45 10° NE
Cosmos 44 4.0 18:01:19 10° NW 18:06:18 64° WSW 18:11:30 10° SSE
Sich 1 Rocket 4.2 18:02:24 10° SSE 18:06:27 34° E 18:10:28 10° NNE
Cosmos 1464 Rocket 4.0 18:00:59 10° N 18:07:01 57° ENE 18:13:03 10° SSE
ALOS 2.4 18:02:49 10° SSE 18:07:29 84° W 18:12:11 10° NNW
CZ-2C R/B 3.9 18:03:42 10° N 18:08:09 75° WNW 18:12:33 10° SSW
FengYun 1-2 T 4.5 18:06:51 10° SE 18:12:05 47° ENE 18:17:19 10° N
Cosmos 2237 Rocket 4.1 18:08:14 10° NW 18:13:16 35° WSW 18:18:16 10° SSW
Cosmos 2227 Rocket 3.1 18:08:20 10° SW 18:13:49 51° WNW 18:19:21 10° NNE
Cosmos 1420 Rocket 4.1 18:11:41 10° NNW 18:17:00 84° WSW 18:22:18 10° SSE
Cosmos 921 Rocket 3.2 18:13:09 10° N 18:17:36 55° ENE 18:21:59 10° SSE
Okean 2 Rocket 4.2 18:14:34 10° SE 18:17:53 21° E 18:21:14 10° NE
SPOT 3 Rocket 3.5 18:12:53 10° SSE 18:18:04 77° ENE 18:23:19 10° NNW
Cosmos 1674 Rocket 3.9 18:14:47 10° NNW 18:19:07 71° W 18:23:24 10° S
SL-16 R/B 2.5 18:14:06 10° NNW 18:19:46 74° WSW 18:25:24 10° SSE
Cosmos 1072 Rocket 4.5 18:13:39 10° N 18:19:53 78° E 18:26:12 10° SSE
ERS-2 2.5 18:21:26 10° SE 18:24:56 44° ENE 18:28:28 10° N
Cosmos 2297 Rocket 3.3 18:21:48 10° SW 18:27:14 47° WNW 18:32:43 10° NNE
COSMOS 2455 3.8 18:24:09 10° SSE 18:28:52 25° ESE 18:33:36 10° NE
SeaSat 1 3.3 18:24:50 10° ESE 18:29:04 30° NE 18:33:18 10° N
USA 215 4.2 18:24:22 10° ENE 18:29:41 27° SE 18:35:03 10° S
MTI 4.2 18:27:22 10° N 18:30:33 65° WNW 18:33:42 10° SSW
Cosmos 1908 Rocket 3.5 18:26:40 10° S 18:31:09 82° E 18:35:38 10° N
H-2A R/B 2.7 18:29:18 10° SSE 18:33:12 83° ENE 18:37:07 10° N
Aureole 3 4.4 18:30:06 10° SSW 18:35:33 63° W 18:39:51 10° N
Cosmos 1603 3.8 18:33:08 10° NNW 18:38:42 56° ENE 18:44:12 10° SE
Cosmos 1184 Rocket 4.0 18:37:11 10° NNE 18:39:52 23° ENE 18:40:14 22° E
Cosmos 1891 Rocket 4.5 18:37:35 10° N 18:43:50 87° W 18:49:55 10° S
SJ-6B 3.0 18:40:45 10° SE 18:44:24 47° ENE 18:48:09 10° N
Cosmos 2034 Rocket 4.0 18:38:11 10° N 18:44:36 81° E 18:50:58 10° S
Envisat 3.2 18:44:18 10° SE 18:49:07 46° ENE 18:53:58 10° N
Meteor 1-13 Rocket 4.3 18:44:16 10° N 18:49:40 52° ENE 18:55:01 10° SSE
Cosmos 2263 Rocket 3.0 18:48:26 10° SSE 18:53:01 27° ESE 18:55:42 19° ENE
Cosmos 1634 Rocket 4.3 18:49:10 10° N 18:54:58 40° ENE 19:00:44 10° SE
Cosmos 1975 Rocket 3.0 18:51:40 10° N 18:56:09 85° E 19:00:37 10° S
ATLAS CENTAUR R/B 2.2 18:53:22 10° NNW 18:57:10 33° NE 18:58:22 28° E
CZ-2D R/B 3.3 18:53:29 10° SSE 18:57:17 57° ENE 19:01:08 10° N
Resurs 1-3 4.3 18:56:04 26° ESE 18:57:26 32° ENE 19:01:21 10° N
Cosmos 494 Rocket 4.2 18:52:42 10° S 18:57:39 46° ESE 19:02:36 10° NNE
HJ-1C 3.3 18:54:51 10° SSE 18:58:16 83° ENE 19:01:42 10° N
Okean 1 3.9 18:54:34 10° NNW 18:58:31 59° W 19:02:24 10° S
Cosmos 1816 Rocket 4.5 18:52:38 10° S 18:58:55 65° E 19:05:13 10° NNE
CENTAUR R/B 3.0 18:53:56 10° SW 18:59:59 63° NW 19:06:59 10° NE
Cosmos 1110 Rocket 3.9 18:57:48 10° NNW 19:03:07 74° ENE 19:08:25 10° SSE
CRYOSAT 2 4.2 18:58:46 10° N 19:03:39 71° E 19:08:28 10° S
USA 267 4.0 19:01:04 21° ENE 19:04:48 38° NNE 19:10:43 10° NW
Cosmos 1602 3.7 19:01:03 10° S 19:04:57 89° W 19:08:51 10° N
Thor Agena Rocket 3.5 19:00:22 10° NNE 19:05:24 58° ESE 19:10:21 10° S
Cosmos 1269 Rocket 4.2 19:02:15 10° SSW 19:07:32 73° WNW 19:12:50 10° NNE
Meteor 1-4 Rocket 2.4 19:04:09 10° S 19:07:38 62° E 19:11:12 10° NNE
BREEZE-M R/B 3.9 19:07:20 10° WNW 19:09:58 61° SSW 19:14:37 19° SE
USA 32 4.4 19:05:14 10° SSW 19:10:25 65° W 19:15:38 10° N
Resurs 01 Rocket 1.8 19:15:19 39° ESE 19:16:25 49° ENE 19:20:42 10° N
Meteor 2-4 Rocket 3.6 19:14:17 10° N 19:20:06 78° ENE 19:25:42 10° SSE
Cosmos 2227 4.3 19:15:37 10° SSW 19:21:21 80° WNW 19:27:05 10° NNE
Meteor 1-5 Rocket 4.4 19:18:13 10° S 19:23:56 55° E 19:29:46 10° NNE
YAOGAN 6 3.8 19:26:58 30° NNE 19:26:58 30° NNE 19:29:03 10° N
Cosmos 1536 Rocket 3.6 19:22:19 10° N 19:26:40 55° ENE 19:26:42 55° E
Alouette 2 Rocket 3.0 19:24:32 10° S 19:28:04 82° E 19:32:00 10° NNE
CZ-4C R/B 2.9 19:21:19 10° NNW 19:28:21 64° NE 19:31:56 34° ESE
Cosmos 1437 Rocket 4.4 19:24:57 10° SW 19:28:45 37° WNW 19:32:37 10° N
SL-8 R/B 4.1 19:26:01 10° W 19:30:43 54° N 19:31:56 42° NE
SJ-11-01 4.3 19:32:30 54° ENE 19:32:36 54° ENE 19:37:14 10° N
Cosmos 1331 Rocket 4.2 19:27:47 10° NNW 19:33:05 70° WSW 19:37:33 14° S
H-2A R/B 4.0 19:37:58 16° NNE 19:37:58 16° NNE 19:39:35 10° NNE
NOAA 11 4.5 19:38:29 45° ENE 19:38:29 45° ENE 19:43:25 10° N
Spot 2 Rocket 3.4 19:37:43 54° SE 19:38:42 68° ENE 19:43:45 10° N
Meteor 1-11 Rocket 3.7 19:33:37 10° SSW 19:39:13 81° W 19:44:59 10° N
Cosmos 1943 3.2 19:37:32 10° NNW 19:43:14 83° WSW 19:45:39 36° SSE
USA 186 3.2 19:46:05 36° NW 19:46:05 36° NW 19:48:18 10° NNW
Gbstr 26 Del rocket 3.1 19:44:36 10° WSW 19:47:48 60° W 19:47:48 60° W
Cosmos 2251 Rocket 3.3 19:49:26 10° SSW 19:54:40 88° ESE 19:56:08 49° NNE
Cosmos 1939 Rocket 3.6 20:01:06 54° WNW 20:01:06 54° WNW 20:04:41 10° NNW
Cosmos 1302 Rocket 4.2 19:59:23 10° NNW 20:04:33 65° WSW 20:05:18 57° SSW
Cosmos 2151 Rocket 4.3 20:00:52 10° SSW 20:05:15 53° WNW 20:09:38 10° N
SeaSat 1 3.4 20:04:38 32° SSW 20:06:24 45° WSW 20:11:09 10° NW
USA 215 3.1 20:11:44 58° NE 20:13:13 89° NW 20:19:45 10° SW
COSMOS 2455 3.2 20:08:23 10° SW 20:14:20 61° NW 20:17:37 27° NNE
Cosmos 2279 Rocket 4.0 20:12:41 10° N 20:18:57 80° W 20:19:44 68° SSW
ATLAS CENTAUR R/B 3.6 20:32:21 10° NW 20:34:39 25° W 20:34:39 25° W
Cosmos 2263 Rocket 3.0 20:31:19 10° SW 20:36:39 47° WNW 20:37:36 43° NNW
USA 267 3.5 20:48:25 65° NW 20:48:25 65° NW 20:53:55 10° NW
Resurs 01 Rocket 4.2 20:52:52 17° W 20:53:11 17° W 20:56:06 10° NW
H-2A R/B 4.4 21:18:36 19° NNW 21:18:36 19° NNW 21:20:05 10° NNW
CZ-4C R/B 4.1 21:10:16 10° NW 21:16:47 35° WSW 21:17:11 35° WSW
